This is the latest recevied weather packets stored in our database for station/object N6GPM. If no packets are shown the sender has not sent any weather packets the latest 1 day(s).
| Time | Temp. | Humidity | Pressure | Rain* | Wind** | Luminosity | Snow |
|---|---|---|---|---|---|---|---|
| 1778016768 | 17.78° C | 49% | 1017.5 hPa | 0 mm | 1.34 m/s, 235° | 483 W/m² | - |
| 1778016463 | 17.78° C | 51% | 1017.4 hPa | 0 mm | 0 m/s | 318 W/m² | - |
| 1778016162 | 17.22° C | 52% | 1017.8 hPa | 0 mm | 0 m/s | 332 W/m² | - |
| 1778015858 | 16.67° C | 52% | 1017.5 hPa | 0 mm | 0 m/s | 297 W/m² | - |
| 1778015556 | 16.67° C | 53% | 1017.7 hPa | 0 mm | 0 m/s | 402 W/m² | - |
| 1778015252 | 16.67° C | 54% | 1017.8 hPa | 0 mm | 0 m/s | 246 W/m² | - |
| 1778014949 | 16.67° C | 53% | 1017.7 hPa | 0 mm | 0 m/s | 238 W/m² | - |
| 1778014646 | 16.11° C | 55% | 1017.6 hPa | 0 mm | 0 m/s | 237 W/m² | - |
| 1778014344 | 17.22° C | 53% | 1017.7 hPa | 0 mm | 0 m/s | 249 W/m² | - |
| 1778014040 | 17.22° C | 51% | 1017.9 hPa | 0 mm | 0 m/s | 264 W/m² | - |
| 1778013738 | 17.22° C | 51% | 1017.7 hPa | 0 mm | 0 m/s | 301 W/m² | - |
| 1778013435 | 17.22° C | 52% | 1017.7 hPa | 0 mm | 0 m/s | 504 W/m² | - |
| 1778013132 | 16.67° C | 52% | 1017.7 hPa | 0 mm | 0 m/s | 434 W/m² | - |
| 1778012828 | 17.22° C | 52% | 1017.7 hPa | 0 mm | 0 m/s | 853 W/m² | - |
| 1778012524 | 16.67° C | 54% | 1017.8 hPa | 0 mm | 0 m/s | 337 W/m² | - |
| 1778012220 | 16.11° C | 55% | 1018 hPa | 0 mm | 0 m/s | 908 W/m² | - |
| 1778011927 | 16.11° C | 55% | 1017.7 hPa | 0 mm | 3.13 m/s, 4° | 387 W/m² | - |
| 1778011611 | 16.67° C | 56% | 1017.9 hPa | 0 mm | 2.24 m/s, 21° | 1051 W/m² | - |
| 1778011307 | 16.67° C | 55% | 1017.8 hPa | 0 mm | 0 m/s | 565 W/m² | - |
| 1778011003 | 16.67° C | 58% | 1017.7 hPa | 0 mm | 0 m/s | 510 W/m² | - |
| 1778010701 | 16.11° C | 55% | 1018.1 hPa | 0 mm | 0 m/s | 355 W/m² | - |
| 1778010398 | 16.11° C | 56% | 1018.1 hPa | 0 mm | 0 m/s | 764 W/m² | - |
| 1778010094 | 16.11° C | 57% | 1018 hPa | 0 mm | 0 m/s | 505 W/m² | - |
| 1778009791 | 16.11° C | 59% | 1018.1 hPa | 0 mm | 0 m/s | 365 W/m² | - |
| 1778009488 | 16.67° C | 58% | 1018.1 hPa | 0 mm | 0 m/s | 343 W/m² | - |
* Rain latest hour (hover to see other rain measurements)
** Current wind speed in m/s (hover to see current wind gust speed)